Regional Weather Roundup
Issued by NWS Sioux Falls, SD

Home | Current Version | Previous Version | Text Only | Print | Product List | Glossary Off
Versions: 1 2 3 4 5 6 7 8 9 10 11 12 13 14 15 16 17 18 19 20 21 22 23 24 25 26 27 28 29 30 31 32 33 34 35 36 37 38 39 40 41 42 43 44 45 46 47 48 49 50

000
ASUS43 KFSD 290002
RWRFSD

WEATHER ROUNDUP FOR SE SOUTH DAKOTA/SW MINNESOTA/NW IOWA
NATIONAL WEATHER SERVICE SIOUX FALLS SD
700 PM CDT MON JUL 28 2014

NOTE: "FAIR" INDICATES FEW OR NO CLOUDS BELOW 12,000 FEET WITH NO
SIGNIFICANT WEATHER AND OR OBSTRUCTIONS TO VISIBILITY.


SDZ038>040-050-052>070-290100-
SOUTHEAST SOUTH DAKOTA

CITY           SKY/WX    TMP DP  RH WIND       PRES   REMARKS
CHAMBERLAIN    MOSUNNY   76  52  42 NE8       30.22F
6HR MIN TEMP:  71; 6HR MAX TEMP:  78;

HURON          MOSUNNY   73  51  46 N8        30.21F
6HR MIN TEMP:  71; 6HR MAX TEMP:  76;

MADISON        FAIR      68  54  60 N10       30.23F
MITCHELL       PTSUNNY   75  51  43 NE8       30.22F
6HR MIN TEMP:  71; 6HR MAX TEMP:  78;

SIOUX FALLS    MOSUNNY   72  54  53 N10       30.21F
6HR MIN TEMP:  69; 6HR MAX TEMP:  75;

WINNER         FAIR      81  48  31 NE7       30.22F
YANKTON          N/A    N/A N/A N/A MISG        N/A
$$

MNZ071-072-080-081-089-090-097-098-290100-
SOUTHWEST MINNESOTA

CITY           SKY/WX    TMP DP  RH WIND       PRES   REMARKS
FAIRMONT       SUNNY     73  52  46 NW9       30.18S
JACKSON        SUNNY     70  52  52 N5        30.20F
LUVERNE        SUNNY     73  52  46 N6        30.21F
MARSHALL       SUNNY     72  52  49 NW9       30.20S
6HR MIN TEMP:  70; 6HR MAX TEMP:  72;

MONTEVIDEO     SUNNY     72  54  53 N9        30.20F
PIPESTONE      SUNNY     70  52  52 NE8       30.22F
REDWOOD FALLS  SUNNY     73  53  49 NW9       30.18F
TRACY          SUNNY     71  53  54 N6        30.21F
WINDOM         SUNNY     70  54  56 N7        30.20F
WORTHINGTON    SUNNY     70  54  56 N13       30.22F
$$

IAZ001>003-012>014-020>022-031-032-NEZ013-014-SDZ071-290100-
NORTHWEST IOWA

CITY           SKY/WX    TMP DP  RH WIND       PRES   REMARKS
CHEROKEE       SUNNY     72  58  60 N8        30.19S
DENISON        SUNNY     70  61  73 NW5       30.16F
ESTHERVILLE    SUNNY     71  54  54 N12       30.19F
LE MARS        PTSUNNY   73  57  56 N9        30.19F
ORANGE CITY    MOSUNNY   73  54  49 N8        30.20F
SHELDON        SUNNY     70  59  68 N6        30.19F
SIOUX CITY     MOSUNNY   74  56  53 N7        30.19F
6HR MIN TEMP:  73; 6HR MAX TEMP:  80;

SPENCER        MOSUNNY   70  56  61 NE8       30.19F
6HR MIN TEMP:  70; 6HR MAX TEMP:  75;

STORM LAKE     SUNNY     70  61  73 N7        30.19F
$$

ABBREVIATIONS USED IN REMARKS
   TC - TEMPERATURE IN CELSIUS
  WCI - WIND CHILL INDEX
   HX - HEAT INDEX
  VSB - VISIBILITY



USA.gov is the U.S. government's official web portal to all federal, state and local government web resources and services.